Regional Weather Roundup
Issued by NWS

Home | Current Version | Previous Version | Graphics & Text | Print | Product List | Glossary On
Versions: 1 2 3 4 5 6 7 8 9 10 11 12 13 14 15 16 17 18 19 20 21 22 23 24 25 26 27 28 29 30 31 32 33 34 35 36 37 38 39 40 41 42 43 44 45 46 47 48 49 50
401
ASUS43 KBIS 181502
RWRND

NORTH DAKOTA REGIONAL WEATHER ROUNDUP
NATIONAL WEATHER SERVICE BISMARCK ND
1000 AM CDT FRI AUG 18 2017

NOTE: "FAIR" INDICATES FEW OR NO CLOUDS BELOW 12,000 FEET WITH NO
SIGNIFICANT WEATHER AND/OR OBSTRUCTIONS TO VISIBILITY.


NDZ001>003-009>011-017-181600-
NORTHWEST NORTH DAKOTA

CITY           SKY/WX    TMP DP  RH WIND       PRES   REMARKS
WILLISTON      SUNNY     66  55  67 CALM      29.99S
MINOT          SUNNY     68  57  68 W12       29.93S
MINOT AFB      SUNNY     68  56  65 NW8       29.92S
$$

NDZ018>021-031>035-040>046-181600-
SOUTHWEST NORTH DAKOTA

CITY           SKY/WX    TMP DP  RH WIND       PRES   REMARKS
BISMARCK       SUNNY     69  57  65 NW8       29.96S
DICKINSON      SUNNY     69  54  58 W9        29.99R
GARRISON         N/A     65  56  72 W7        29.95S
HETTINGER ARPT SUNNY     66  53  63 NW6       30.02S
$$

NDZ004>008-012>016-024-026-027-054-181600-
NORTHEAST NORTH DAKOTA

CITY           SKY/WX    TMP DP  RH WIND       PRES   REMARKS
GRAND FORKS    PTSUNNY   73  60  63 N12       29.85S
GRND FRKS AFB  MOSUNNY   73  57  57 N8        29.86F
DEVILS LAKE    CLOUDY    64  59  83 N5        29.90S
$$

NDZ022-023-025-028>030-036>039-047>053-181600-
SOUTHEAST NORTH DAKOTA

CITY           SKY/WX    TMP DP  RH WIND       PRES   REMARKS
FARGO          CLOUDY    67  60  78 W5        29.88R
JAMESTOWN      PTSUNNY   63  58  83 N7        29.89S
$$





USA.gov is the U.S. government's official web portal to all federal, state and local government web resources and services.